Temperature
2 2 2 2 2 2 2 2 2 3 3 4 3 3 3 3 3 3 3 2 2 2 2 2 2 2 2 2 2 2 2 2 2 2 2 2 2 2 2 2 2 2 2 1
1 2 2 2 2 2 2 2 2 2 3 3 3 3 3 2 2 2 2 2 2 2 1 1 1 1 2 2 2 2 2 2 2 2 1 1 2 1 1 1 1 1 1 1
1 1 2 2 2 2 2 2 2 3 3 2 2 2 2 2 2 2 2 2 1 1 1 1 1 1 1 2 2 2 1 1 1 1 1 1 1 1 1 1 1 1 1 1
0 1 2 3 3 2 2 2 2 2 2 2 2 2 3 3 2 2 2 1 1 1 1 1 1 1 1 1 1 1 1 1 1 1 1 1 1 1 1 1 1 1 0 0
-0 0 1 3 3 2 2 2 2 1 1 2 2 2 2 2 2 2 2 1 1 0 0 0 1 1 1 1 1 1 1 1 1 1 0 0 0 0 0 -0 0 -0 -0 -0
-0 1 2 4 3 3 2 2 2 1 1 1 1 0 1 2 2 2 2 1 1 0 0 0 0 0 0 0 0 0 0 0 0 0 -0 -0 -0 -0 -0 -1 -1 -1 -1 -1
-0 0 1 2 2 2 3 3 3 2 2 1 1 1 2 2 2 1 1 1 1 0 0 0 0 0 0 0 -0 -0 -0 -0 -0 -0 -0 -1 -1 -1 -1 -1 -1 -1 -1 -1
-1 -0 1 2 1 2 2 3 3 3 2 2 2 2 2 2 1 1 1 1 0 0 -0 -0 -0 -0 -0 -0 -0 -1 -0 -0 -0 -1 -1 -1 -1 -1 -1 -2 -2 -2 -2 -2
-0 2 2 2 2 3 3 3 3 3 2 2 2 2 1 1 1 1 1 0 -0 -0 -0 -0 -1 -1 -1 -1 -1 -1 -1 -1 -1 -1 -1 -1 -1 -2 -2 -2 -2 -2 -2 -2
-1 -0 1 2 3 3 3 3 3 3 2 2 2 1 1 1 1 0 0 -0 -0 -1 -1 -1 -1 -1 -1 -1 -1 -1 -1 -1 -1 -1 -2 -2 -2 -2 -2 -2 -2 -3 -3 -3
-1 -0 1 2 3 3 3 3 2 2 2 2 2 1 1 1 0 -0 -0 -0 -1 -1 -1 -1 -1 -1 -1 -1 -1 -1 -1 -1 -2 -2 -2 -2 -2 -3 -3 -3 -3 -3 -3 -3
1 1 1 2 3 3 2 2 2 2 2 1 1 1 1 0 -0 -0 -1 -1 -1 -1 -1 -1 -1 -2 -2 -2 -2 -2 -2 -2 -2 -2 -2 -2 -3 -3 -3 -3 -3 -3 -3 -3
3 3 3 3 3 2 2 2 2 1 1 1 1 0 0 -0 -0 -1 -1 -1 -1 -1 -1 -2 -2 -2 -2 -2 -2 -2 -2 -2 -2 -2 -3 -3 -3 -3 -3 -3 -3 -3 -3 -3
2 2 2 2 2 2 1 1 1 1 1 0 0 -0 -0 -0 -1 -1 -1 -1 -1 -2 -2 -2 -2 -2 -2 -2 -2 -2 -2 -2 -3 -3 -3 -3 -3 -3 -3 -3 -4 -4 -4 -4
2 2 2 2 2 1 1 1 0 0 0 -0 -0 -1 -1 -1 -1 -1 -1 -1 -2 -2 -2 -2 -2 -3 -3 -3 -3 -3 -3 -3 -3 -3 -3 -3 -4 -4 -4 -4 -4 -4 -4 -4
1 1 1 1 1 1 1 0 0 0 -0 -0 -1 -1 -1 -1 -1 -1 -1 -2 -2 -2 -2 -3 -3 -3 -3 -3 -3 -3 -3 -3 -3 -3 -4 -4 -4 -4 -4 -4 -4 -4 -4 -4
0 0 1 1 1 1 0 0 0 0 -0 -0 -1 -1 -1 -1 -1 -1 -2 -2 -2 -2 -3 -3 -3 -3 -3 -3 -3 -3 -3 -3 -4 -4 -4 -4 -4 -4 -4 -4 -5 -5 -5 -5
1 1 1 1 1 0 0 0 0 -0 -0 -0 -1 -1 -1 -1 -2 -2 -2 -2 -3 -3 -3 -3 -3 -3 -3 -3 -4 -4 -4 -4 -4 -4 -4 -5 -5 -5 -5 -5 -5 -5 -5 -5
1 1 1 1 0 0 0 0 -0 -0 -1 -1 -1 -1 -1 -2 -2 -2 -2 -3 -3 -3 -3 -3 -3 -3 -3 -4 -4 -4 -4 -4 -5 -5 -5 -5 -5 -5 -5 -5 -5 -5 -5 -5
1 1 1 1 0 0 -0 -0 -1 -1 -1 -1 -1 -1 -2 -2 -2 -2 -3 -3 -3 -3 -3 -4 -4 -4 -4 -4 -4 -4 -5 -5 -5 -5 -5 -5 -5 -5 -5 -5 -5 -5 -5 -5
1 1 0 0 0 0 -0 -1 -1 -1 -1 -2 -2 -2 -2 -2 -3 -3 -3 -3 -3 -3 -4 -4 -4 -4 -4 -4 -4 -5 -5 -5 -5 -5 -5 -5 -6 -6 -6 -6 -6 -6 -6 -6
0 0 0 -0 -0 -0 -1 -1 -1 -1 -2 -2 -2 -2 -2 -2 -3 -3 -3 -3 -3 -4 -4 -4 -4 -4 -4 -4 -5 -5 -5 -5 -5 -6 -6 -6 -6 -6 -6 -6 -6 -6 -6 -6
-0 -0 -0 -1 -1 -1 -1 -1 -2 -2 -2 -2 -2 -2 -3 -3 -3 -3 -3 -3 -4 -4 -4 -4 -4 -5 -5 -5 -5 -5 -5 -5 -6 -6 -6 -6 -6 -6 -6 -6 -6 -6 -6 -6
-1 -1 -1 -1 -1 -2 -2 -2 -2 -2 -2 -2 -2 -3 -3 -3 -3 -3 -4 -4 -4 -4 -4 -5 -5 -5 -5 -5 -5 -5 -5 -6 -6 -6 -6 -6 -6 -6 -6 -6 -7 -7 -7 -7
-1 -1 -1 -2 -2 -2 -2 -2 -2 -2 -3 -3 -3 -3 -3 -3 -4 -4 -4 -4 -4 -5 -5 -5 -5 -5 -5 -6 -6 -6 -6 -6 -6 -6 -6 -6 -6 -6 -7 -7 -7 -7 -7 -7
-2 -2 -2 -2 -2 -3 -3 -3 -3 -3 -3 -3 -3 -4 -4 -4 -4 -4 -4 -5 -5 -5 -5 -5 -6 -6 -6 -6 -6 -6 -6 -6 -6 -6 -6 -7 -7 -7 -7 -7 -7 -7 -7 -7
-2 -2 -2 -3 -3 -3 -3 -3 -3 -3 -3 -4 -4 -4 -4 -4 -5 -5 -5 -5 -5 -5 -5 -6 -6 -6 -6 -6 -6 -6 -6 -7 -7 -7 -7 -7 -7 -7 -7 -7 -7 -7 -8 -8
Wind_Speed
7 7 5 7 8 7 9 9 8 9 10 13 9 7 6 4 4 4 4 4 4 4 4 4 4 4 4 3 3 2 2 2 3 3 2 2 2 2 3 3 3 3 3 3
4 5 5 8 10 10 10 9 10 11 13 10 6 4 4 4 4 4 5 5 5 5 5 4 4 4 4 4 3 2 2 2 2 2 2 2 2 2 2 2 2 2 3 3
3 4 3 7 9 10 7 8 8 10 11 4 5 5 5 5 4 4 5 6 6 6 5 5 5 4 4 4 3 2 2 2 2 2 1 2 2 1 2 2 1 2 2 2
2 2 5 7 3 7 7 7 8 8 6 5 6 6 5 4 3 4 5 6 6 6 6 5 5 4 3 3 2 2 2 2 2 2 2 1 1 1 1 1 0 1 1 1
2 3 7 8 4 4 5 7 6 8 6 4 3 3 4 3 3 4 5 5 5 5 5 5 4 4 3 2 2 2 2 3 3 2 2 1 2 2 1 1 1 0 0 0
3 3 6 7 3 2 3 5 5 6 6 4 0 3 6 5 4 4 4 4 3 4 4 4 4 3 2 2 2 3 4 3 3 2 2 2 2 1 1 0 0 0 0 0
6 6 8 6 2 3 3 6 3 5 5 4 5 6 5 4 4 3 3 4 3 3 3 3 3 2 2 2 3 4 4 3 2 2 2 2 1 0 0 0 0 0 0 0
5 6 9 4 5 6 7 3 3 4 4 5 5 4 3 3 3 3 3 4 3 3 4 4 3 2 3 4 4 3 2 2 2 2 2 1 0 0 0 1 1 0 0 0
9 9 5 6 7 6 4 4 5 4 5 4 4 4 4 3 4 4 3 3 3 3 4 4 3 2 3 5 4 3 2 2 2 1 1 0 1 0 0 1 0 0 1 1
6 9 8 7 6 6 6 6 6 5 5 4 5 4 4 4 4 4 4 3 3 2 3 4 4 3 4 4 2 2 2 1 1 0 0 0 0 0 0 0 0 1 1 1
7 8 6 7 8 8 6 5 5 4 4 5 4 4 4 4 4 4 4 3 2 3 4 5 4 4 4 3 2 1 1 1 1 0 1 0 0 0 0 1 1 1 1 1
9 8 6 7 6 5 5 6 6 4 4 4 4 5 4 4 4 4 4 3 3 3 4 4 4 4 4 3 1 0 1 1 0 0 0 1 1 1 2 1 1 2 2 1
9 6 6 6 4 5 5 5 5 5 5 4 4 4 4 4 4 4 4 4 4 4 4 4 3 4 4 2 1 0 1 1 1 0 1 1 1 1 1 2 2 3 3 2
7 4 5 6 6 5 4 4 3 3 3 3 3 3 3 4 4 4 4 4 4 4 3 3 3 3 3 2 1 1 1 1 0 1 1 1 1 1 1 1 1 1 2 3
8 7 7 5 3 3 3 2 3 3 3 3 3 3 4 4 5 5 4 3 2 3 3 2 2 3 3 1 1 1 1 1 0 0 1 1 1 1 1 1 1 1 1 2
5 4 4 5 5 5 4 4 5 5 4 4 4 4 4 4 4 4 3 2 2 3 3 2 3 3 1 1 0 0 0 1 1 1 1 1 1 1 1 1 1 1 1 1
5 6 6 6 6 6 6 6 6 6 5 5 5 4 3 3 2 3 3 3 3 3 3 2 3 2 1 0 1 0 0 0 1 1 0 0 1 1 1 1 1 1 1 1
8 8 7 7 6 6 6 5 5 5 5 5 4 3 3 4 4 4 3 2 1 2 2 2 2 1 1 0 0 1 1 1 0 0 0 0 0 0 1 1 0 1 1 1
6 6 6 6 6 5 5 5 4 4 3 3 3 4 4 4 4 3 2 1 1 3 3 2 2 1 1 1 0 1 1 1 1 0 0 0 0 0 0 0 0 0 0 0
4 4 5 5 4 4 4 4 3 3 3 3 3 3 3 3 3 2 2 2 3 3 2 1 1 1 1 1 1 1 1 1 1 0 0 0 0 0 0 0 0 0 0 0
3 3 4 4 3 3 4 4 4 4 3 3 4 4 4 3 2 2 2 3 3 2 2 2 1 1 1 1 1 1 1 1 1 1 0 0 0 0 0 0 0 0 0 0
3 3 3 3 3 3 2 2 3 3 2 3 3 3 3 2 2 2 3 3 3 2 1 1 1 2 1 1 1 1 1 1 1 1 1 1 1 1 0 0 0 0 0 0
3 3 3 3 3 3 2 2 3 3 3 3 3 4 4 3 3 3 3 2 2 2 1 1 2 2 2 1 1 1 1 1 1 1 1 1 1 1 1 1 1 1 1 0
3 3 3 2 2 2 3 3 2 2 2 2 3 3 3 2 2 2 2 2 2 2 1 2 2 2 2 1 1 1 1 1 1 1 1 1 1 1 1 1 1 1 1 1
3 3 3 3 3 3 3 2 1 1 1 1 2 2 2 3 3 2 2 2 3 2 1 2 2 2 1 1 1 1 1 2 2 1 1 1 1 1 1 1 1 1 1 1
3 3 3 4 4 3 3 3 2 2 2 2 1 1 1 1 1 1 1 2 3 2 1 1 1 2 1 1 1 1 1 1 1 1 1 1 1 1 1 1 1 1 1 1
3 3 2 2 2 3 3 3 4 4 3 3 2 2 2 2 2 2 2 2 1 1 1 1 1 1 1 1 1 1 1 1 1 1 1 1 1 1 1 1 1 1 1 1
Wind_Direction
251 265 253 250 249 223 218 217 225 248 255 271 279 278 280 282 294 305 305 306 304 304 303 299 306 310 308 302 298 292 296 291 277 276 276 278 281 258 248 247 244 233 235 249
278 267 259 263 252 234 235 233 238 257 270 271 280 288 290 286 288 295 296 298 300 299 302 297 295 296 297 296 290 287 281 285 296 294 288 286 287 287 266 253 240 227 235 240
267 301 318 267 233 212 219 219 211 236 251 272 297 284 277 270 274 282 295 303 303 299 295 291 284 281 282 285 288 276 273 288 298 287 283 291 299 309 288 264 240 229 228 231
268 1 248 245 226 201 214 241 225 237 251 249 259 268 272 253 237 276 289 298 300 303 302 298 296 294 289 292 279 266 280 288 285 284 281 290 313 305 304 316 260 238 242 229
197 250 273 285 247 186 204 261 234 227 249 271 291 317 291 271 264 262 271 283 286 291 295 297 301 304 298 301 293 285 278 278 280 276 281 297 289 282 301 340 344 316 280 235
189 219 244 251 235 177 127 273 237 211 233 258 346 301 281 287 293 287 292 298 297 304 310 307 305 308 302 299 297 284 275 270 271 272 265 269 275 271 307 33 301 332 25 253
210 233 261 254 227 124 168 253 250 211 222 222 219 234 261 284 292 283 289 297 303 314 312 304 307 312 305 300 287 282 282 279 280 280 271 266 269 285 51 73 49 39 45 2
186 216 251 211 156 186 227 259 235 226 223 225 243 259 271 280 284 289 296 301 304 312 310 308 308 306 304 293 293 299 298 298 290 290 283 278 159 1 34 78 75 12 7 342
199 220 243 191 206 230 230 236 238 229 238 221 239 257 271 279 283 286 284 293 299 297 304 309 310 301 284 289 302 311 317 308 295 294 299 262 145 124 59 70 98 306 311 298
245 258 252 245 249 254 240 236 241 236 234 225 236 245 263 275 286 290 287 291 296 304 302 303 308 306 287 291 310 316 305 302 304 250 311 20 58 144 146 184 177 248 266 245
249 265 277 261 239 240 247 250 255 254 243 228 225 247 253 265 275 281 290 292 284 273 280 288 298 301 306 309 316 316 317 325 337 321 190 137 357 284 215 221 224 220 202 166
238 235 223 253 244 225 235 247 240 238 250 247 230 237 248 257 266 275 280 283 288 285 285 288 293 298 309 312 300 303 328 322 305 331 101 118 83 13 351 336 357 49 64 83
240 250 237 258 249 216 227 240 236 230 230 245 244 230 235 256 265 270 274 276 275 276 278 282 289 297 306 313 313 265 264 277 257 190 132 131 132 111 46 19 29 48 57 62
240 243 259 251 244 235 232 240 237 244 249 239 246 246 245 257 265 266 265 268 272 271 270 276 287 296 303 314 324 322 307 304 20 145 135 144 158 150 129 107 53 18 27 50
243 233 237 249 243 241 236 225 229 249 253 258 249 245 243 246 257 265 269 274 273 266 266 273 283 294 309 325 339 338 14 19 21 81 98 113 128 128 121 110 104 75 42 34
246 239 231 234 237 239 232 224 226 239 241 243 243 244 243 245 255 268 267 247 241 251 257 261 274 290 308 331 353 8 3 356 24 67 77 79 94 110 113 113 110 100 83 55
226 236 230 234 236 236 233 229 226 232 232 234 239 240 242 252 269 271 271 260 247 248 248 252 273 292 291 242 184 179 123 5 15 41 77 103 105 113 121 120 118 88 57 54
225 230 222 215 220 227 235 235 231 227 229 234 231 222 221 227 239 252 263 278 291 293 289 279 279 280 259 228 195 160 148 144 127 128 77 129 117 126 128 126 113 91 49 22
234 232 231 224 220 217 225 229 226 225 229 214 207 218 226 232 239 242 238 224 238 270 285 276 271 245 246 242 166 153 151 152 147 135 132 252 15 72 104 105 82 70 81 70
237 232 229 231 226 218 226 227 218 222 221 201 201 215 232 241 228 214 208 231 246 251 253 252 230 229 231 228 172 156 162 166 165 156 97 117 113 314 185 174 174 226 248 233
235 231 227 227 233 232 221 212 204 217 221 200 202 215 224 231 213 195 202 257 274 249 235 245 230 226 204 197 178 152 158 162 164 171 175 180 176 254 267 206 219 258 266 259
239 232 233 227 222 239 235 208 202 206 208 211 215 209 204 217 218 223 235 239 252 235 207 213 218 225 206 176 147 148 154 162 176 176 176 195 208 220 244 244 225 246 247 235
242 234 232 227 222 227 235 219 207 200 208 215 212 205 207 215 210 215 255 251 231 231 212 212 224 218 192 144 142 159 169 180 194 206 212 220 221 207 202 221 234 231 213 216
236 230 231 227 201 193 221 237 222 211 209 220 220 207 197 206 238 236 237 239 229 225 214 227 219 203 167 132 154 171 187 198 208 215 216 220 220 207 211 218 230 239 228 211
230 227 217 205 210 222 222 215 206 214 204 225 243 230 213 205 212 224 214 216 214 202 206 221 209 182 150 148 166 187 206 213 208 202 207 218 225 227 232 230 228 230 234 226
226 227 229 222 218 216 202 191 202 217 205 220 248 232 209 196 192 195 197 199 197 193 192 197 183 164 157 168 180 189 200 224 247 227 215 223 235 242 248 248 245 243 241 232
224 226 227 238 232 210 199 196 204 213 206 203 221 220 198 185 179 184 185 183 180 178 176 170 162 166 172 175 181 188 191 195 203 217 231 240 247 252 254 251 248 249 237 221
Height
1501 1498 1499 1498 1496 1497 1497 1496 1497 1486 1482 1473 1471 1471 1469 1467 1466 1464 1462 1461 1459 1457 1455 1453 1451 1449 1447 1446 1445 1443 1442 1440 1439 1438 1437 1436 1435 1435 1435 1435 1435 1435 1435 1435
1500 1496 1496 1494 1490 1491 1490 1489 1488 1484 1479 1471 1470 1469 1467 1465 1464 1462 1460 1458 1457 1454 1452 1450 1448 1446 1445 1443 1442 1441 1439 1438 1437 1435 1434 1433 1432 1432 1432 1432 1432 1432 1432 1432
1501 1498 1495 1491 1483 1483 1483 1480 1481 1479 1473 1470 1469 1467 1465 1463 1462 1460 1459 1457 1454 1452 1450 1448 1446 1444 1442 1441 1440 1438 1437 1435 1434 1432 1431 1430 1429 1429 1428 1428 1428 1428 1428 1428
1503 1501 1497 1479 1474 1474 1475 1473 1473 1471 1468 1467 1465 1464 1463 1461 1460 1458 1456 1454 1451 1449 1447 1445 1443 1441 1440 1438 1437 1436 1434 1432 1431 1430 1429 1427 1427 1426 1426 1425 1425 1425 1425 1425
1504 1501 1490 1476 1471 1472 1473 1471 1467 1467 1465 1464 1463 1462 1460 1459 1458 1456 1454 1452 1449 1447 1444 1442 1440 1438 1437 1435 1434 1433 1431 1430 1428 1427 1426 1425 1424 1423 1423 1423 1422 1422 1422 1422
1502 1497 1488 1470 1467 1466 1470 1470 1462 1462 1462 1462 1462 1463 1458 1456 1455 1453 1451 1449 1447 1444 1442 1439 1438 1436 1434 1433 1431 1430 1428 1427 1426 1425 1424 1423 1422 1421 1421 1420 1420 1420 1420 1420
1498 1494 1480 1467 1465 1466 1472 1465 1459 1458 1458 1458 1458 1458 1455 1453 1452 1450 1448 1447 1444 1442 1439 1437 1435 1434 1432 1430 1428 1427 1426 1425 1423 1422 1421 1421 1420 1419 1419 1418 1418 1418 1418 1417
1494 1491 1478 1462 1463 1465 1461 1456 1455 1455 1455 1455 1454 1453 1451 1450 1449 1447 1446 1444 1441 1439 1436 1435 1433 1431 1429 1427 1426 1425 1423 1422 1421 1420 1419 1418 1418 1417 1417 1416 1416 1416 1416 1415
1476 1469 1459 1457 1456 1455 1455 1454 1453 1452 1452 1452 1451 1449 1448 1447 1446 1445 1443 1441 1439 1437 1434 1432 1430 1429 1426 1425 1423 1422 1420 1419 1418 1418 1417 1416 1416 1415 1415 1414 1414 1414 1414 1413
1468 1458 1454 1453 1453 1452 1452 1451 1450 1450 1449 1449 1447 1446 1446 1445 1443 1442 1440 1439 1437 1434 1431 1429 1428 1426 1424 1422 1421 1419 1418 1416 1416 1415 1414 1414 1414 1413 1413 1413 1413 1413 1412 1412
1461 1454 1451 1448 1448 1448 1448 1448 1447 1446 1446 1445 1445 1443 1443 1442 1440 1439 1438 1436 1434 1432 1429 1427 1425 1423 1421 1420 1418 1417 1415 1414 1413 1412 1412 1412 1411 1412 1412 1412 1412 1412 1411 1411
1452 1446 1447 1443 1443 1444 1444 1444 1443 1443 1442 1442 1442 1440 1439 1438 1437 1436 1435 1433 1431 1429 1427 1425 1423 1421 1419 1418 1416 1415 1413 1412 1410 1410 1409 1410 1410 1410 1411 1411 1411 1411 1411 1411
1443 1441 1442 1440 1440 1440 1440 1440 1440 1439 1439 1438 1438 1438 1436 1435 1434 1433 1431 1430 1428 1426 1424 1422 1421 1418 1417 1415 1414 1413 1411 1410 1409 1408 1408 1408 1409 1409 1409 1410 1410 1410 1410 1410
1439 1439 1437 1436 1436 1436 1436 1436 1436 1436 1435 1435 1434 1434 1433 1432 1431 1429 1428 1427 1425 1423 1421 1420 1418 1417 1415 1413 1412 1411 1410 1409 1407 1407 1407 1408 1408 1408 1408 1408 1408 1409 1409 1410
1434 1434 1434 1433 1432 1433 1433 1432 1432 1431 1431 1431 1431 1430 1429 1428 1427 1426 1425 1424 1422 1420 1419 1417 1416 1415 1414 1412 1411 1409 1409 1408 1407 1407 1407 1407 1407 1407 1407 1408 1408 1408 1409 1409
1429 1430 1430 1429 1429 1428 1429 1428 1428 1427 1427 1427 1427 1426 1426 1425 1424 1423 1422 1421 1419 1417 1416 1415 1414 1413 1412 1411 1410 1409 1408 1408 1407 1406 1406 1406 1406 1407 1407 1407 1407 1408 1408 1408
1425 1424 1424 1424 1424 1424 1424 1424 1424 1423 1424 1423 1423 1423 1422 1421 1420 1420 1419 1418 1417 1415 1414 1413 1412 1411 1410 1410 1409 1408 1408 1407 1407 1406 1406 1406 1406 1406 1406 1406 1407 1407 1407 1408
1419 1420 1420 1420 1420 1420 1420 1420 1420 1420 1420 1420 1420 1419 1419 1418 1417 1416 1416 1415 1414 1413 1412 1411 1411 1410 1409 1408 1408 1407 1407 1406 1406 1406 1405 1405 1405 1405 1406 1406 1406 1406 1406 1407
1415 1416 1416 1416 1416 1417 1417 1416 1416 1417 1417 1417 1416 1416 1415 1415 1415 1414 1413 1412 1411 1410 1410 1410 1409 1408 1408 1407 1407 1406 1406 1406 1405 1405 1405 1405 1405 1405 1405 1405 1406 1406 1406 1406
1412 1412 1412 1412 1413 1413 1413 1413 1413 1413 1413 1413 1413 1412 1412 1412 1412 1412 1411 1410 1410 1409 1409 1408 1407 1407 1406 1406 1405 1405 1405 1404 1404 1404 1404 1404 1404 1404 1405 1405 1405 1405 1405 1405
1409 1409 1409 1409 1410 1410 1410 1410 1410 1410 1410 1410 1410 1409 1409 1409 1409 1409 1408 1408 1408 1408 1407 1406 1406 1405 1405 1404 1404 1404 1403 1403 1403 1403 1403 1403 1403 1403 1404 1404 1404 1404 1404 1404
1407 1406 1407 1407 1407 1407 1407 1407 1407 1406 1406 1406 1406 1406 1406 1406 1406 1406 1406 1406 1406 1405 1405 1404 1404 1404 1403 1403 1402 1402 1402 1402 1402 1402 1402 1402 1402 1402 1402 1402 1402 1403 1403 1403
1404 1404 1404 1404 1404 1403 1403 1404 1404 1404 1404 1404 1403 1403 1403 1404 1403 1403 1403 1403 1403 1403 1403 1402 1402 1402 1402 1401 1401 1400 1400 1400 1400 1400 1400 1400 1400 1400 1401 1401 1401 1401 1401 1401
1401 1401 1401 1400 1400 1400 1400 1400 1401 1401 1401 1401 1401 1401 1401 1401 1401 1401 1401 1401 1401 1401 1400 1400 1400 1400 1400 1399 1399 1399 1399 1399 1399 1399 1399 1399 1398 1399 1399 1399 1399 1399 1399 1399
1397 1397 1397 1396 1396 1396 1397 1397 1397 1397 1398 1398 1398 1398 1398 1398 1399 1398 1398 1398 1399 1399 1398 1398 1398 1398 1398 1398 1397 1397 1397 1397 1397 1396 1396 1396 1397 1397 1397 1397 1397 1397 1397 1397
1393 1393 1393 1393 1393 1393 1393 1394 1394 1394 1394 1394 1395 1395 1395 1396 1396 1396 1396 1396 1396 1396 1396 1396 1396 1396 1396 1396 1395 1395 1395 1395 1395 1394 1394 1395 1395 1395 1395 1395 1395 1395 1395 1396
1390 1389 1389 1389 1389 1389 1390 1390 1390 1391 1391 1391 1392 1392 1392 1393 1393 1393 1393 1393 1394 1394 1394 1394 1394 1394 1394 1394 1393 1393 1393 1393 1393 1393 1393 1393 1393 1393 1393 1393 1393 1393 1393 1393